Location: Makanda
(37.6176°N, 89.2090°W)
Time: 04:41:12
(UTC+00:00)

Resurs 01 Rocket - Pass Details

Date: 23 September 2019
Orbit: 635 x 644 km, 98.0° (Epoch: 22 October)

Event Time Altitude Azimuth Distance (km) Brightness Sun altitude
Exits shadow 03:10:43 16° 318° (NW) 1,670 4.4 -37.5°
Drops below altitude 10° 03:11:48 10° 326° (NNW) 2,042 4.9 -37.7°
Sets 03:14:13 0° 337° (NNW) 2,958 5.8 -38.1°
